Weather History for KALB - February, 2013

Change the Weather History Date:

Tuesday, February 19, 2013

  Actual Average Record
Temperature  
Mean Temperature 31 °F 27 °F  
Max Temperature 43 °F 36 °F 66 °F (1981)
Min Temperature 18 °F 18 °F -7 °F (1878)
Degree Days  
Heating Degree Days 34 38  
Month to date heating degree days 768 762  
Since 1 July heating degree days 4244 4613  
Cooling Degree Days 0 0  
Month to date cooling degree days 0 0  
Year to date cooling degree days 0 0  
Moisture  
Dew Point 21 °F    
Average Humidity 68    
Maximum Humidity 92    
Minimum Humidity 43    
Precipitation  
Precipitation 0.08 in 0.07 in 0.90 in (1908)
Month to date precipitation 0.73 1.45  
Year to date precipitation 2.19 4.04  
Snow  
Snow T in 0.40 in 11.40 in (1972)
Month to date snowfall 7.2 8.6  
Since 1 July snowfall 26.8 42.7  
Snow Depth 0.00 in    
Sea Level Pressure  
Sea Level Pressure 29.87 in    
Wind  
Wind Speed 9 mph (South)    
Max Wind Speed 29 mph    
Max Gust Speed 43 mph    
Visibility 9 miles    
Events Rain , Snow    
T = Trace of Precipitation, MM = Missing Value Source: NWS Daily Summary

Daily Weather History Graph

Daily Weather History Graph

Search for Another Location

Airport or City:

Trip Planner

Search our weather history database for the weather conditions in past years. The results will help you decide how hot, cold, wet, or windy it might be!

Date:

Astronomy

Feb. 19, 2013 Rise Set
Actual Time 6:46 AM EST 5:32 PM EST
Civil Twilight 6:17 AM EST 6:01 PM EST
Nautical Twilight 5:44 AM EST 6:34 PM EST
Astronomical Twilight 5:11 AM EST 7:06 PM EST
Moon 11:57 AM EST (2/19) 2:20 AM EST (2/19)
Length of Visible Light 11h 43m
Length of Day
10h 46m
Waxing Gibbous, 67% of the Moon is Illuminated
Feb 19
Waxing Gibbous
Feb 25
Full
Mar 4
Last Quarter
Mar 11
New
Mar 19
First Quarter

Hourly Weather History & Observations

Time (EST) Temp. Windchill Dew Point Humidity Pressure Visibility Wind Dir Wind Speed Gust Speed Precip Events Conditions
12:51 AM 19.0 °F 13.9 °F 7.0 °F 59% 30.18 in 10.0 mi SSW 3.5 mph - N/A   Mostly Cloudy
1:51 AM 21.0 °F - 9.0 °F 60% 30.16 in 10.0 mi Calm Calm - N/A   Mostly Cloudy
2:51 AM 21.9 °F 17.2 °F 10.0 °F 60% 30.13 in 10.0 mi North 3.5 mph - N/A   Overcast
3:51 AM 19.9 °F 14.9 °F 10.9 °F 68% 30.12 in 10.0 mi North 3.5 mph - N/A   Scattered Clouds
4:51 AM 19.9 °F - 10.9 °F 68% 30.09 in 10.0 mi Calm Calm - N/A   Scattered Clouds
5:51 AM 18.0 °F - 10.0 °F 71% 30.06 in 10.0 mi Calm Calm - N/A   Partly Cloudy
6:51 AM 18.0 °F - 10.0 °F 71% 30.03 in 10.0 mi Calm Calm - N/A   Scattered Clouds
7:51 AM 21.0 °F - 10.0 °F 63% 30.02 in 10.0 mi Calm Calm - N/A   Mostly Cloudy
8:51 AM 26.1 °F - 12.0 °F 55% 29.99 in 10.0 mi Calm Calm - N/A   Mostly Cloudy
9:51 AM 33.1 °F 23.9 °F 15.1 °F 48% 29.96 in 10.0 mi South 12.7 mph 17.3 mph N/A   Overcast
10:51 AM 37.0 °F 28.1 °F 17.1 °F 44% 29.91 in 10.0 mi South 15.0 mph 24.2 mph N/A   Overcast
11:51 AM 39.0 °F 32.8 °F 19.0 °F 45% 29.86 in 10.0 mi SSE 9.2 mph 20.7 mph N/A   Overcast
1:51 PM 42.1 °F 31.9 °F 21.9 °F 45% 29.79 in 10.0 mi South 26.5 mph 39.1 mph N/A   Overcast
2:51 PM 37.9 °F 27.3 °F 27.0 °F 65% 29.78 in 10.0 mi South 21.9 mph 36.8 mph 0.00 in Rain , Snow Light Rain
3:51 PM 37.0 °F 28.1 °F 30.0 °F 76% 29.74 in 10.0 mi South 15.0 mph 21.9 mph 0.00 in Rain Light Rain
4:13 PM 37.4 °F 29.3 °F 30.2 °F 75% 29.72 in 10.0 mi SSE 12.7 mph - 0.00 in   Overcast
4:51 PM 37.0 °F 29.8 °F 32.0 °F 82% 29.71 in 10.0 mi South 10.4 mph 18.4 mph 0.00 in Rain Light Rain
5:31 PM 37.4 °F 28.2 °F 33.8 °F 87% 29.69 in 10.0 mi South 16.1 mph 21.9 mph 0.00 in Rain Light Rain
5:51 PM 36.0 °F 28.0 °F 33.1 °F 89% 29.70 in 6.0 mi South 11.5 mph 20.7 mph 0.02 in Rain , Snow Light Rain
7:51 PM 36.0 °F 28.5 °F 34.0 °F 93% 29.67 in 5.0 mi South 10.4 mph - 0.01 in Rain Light Rain
8:51 PM 35.1 °F 30.1 °F 33.1 °F 92% 29.65 in 6.0 mi South 5.8 mph - 0.03 in Rain Light Rain
9:51 PM 35.1 °F 27.9 °F 34.0 °F 96% 29.64 in 6.0 mi South 9.2 mph - 0.00 in   Overcast
10:20 PM 35.6 °F 29.9 °F 33.8 °F 93% 29.63 in 6.0 mi SSW 6.9 mph - N/A   Overcast
10:51 PM 34.0 °F 24.2 °F 30.0 °F 85% 29.67 in 7.0 mi WNW 15.0 mph 25.3 mph 0.00 in   Overcast
11:21 PM 33.8 °F 21.6 °F 24.8 °F 70% 29.67 in 10.0 mi WNW 23.0 mph 31.1 mph 0.00 in Snow Light Snow
11:51 PM 33.1 °F 22.2 °F 24.1 °F 70% 29.68 in 9.0 mi WNW 17.3 mph 27.6 mph 0.00 in Snow Light Snow